TimeEST,TemperatureF,Dew PointF,Humidity,Sea Level PressureIn,VisibilityMPH,Wind Direction,Wind SpeedMPH,Gust SpeedMPH,PrecipitationIn,Events,Conditions,WindDirDegrees,DateUTC
12:15 AM,51.8,51.8,100,30.18,0.2,Calm,Calm,-,N/A,,Mostly Cloudy,0,2012-11-28 05:15:00
12:35 AM,51.8,51.8,100,30.18,0.2,Calm,Calm,-,N/A,,Mostly Cloudy,0,2012-11-28 05:35:00
12:55 AM,50.0,50.0,100,30.17,0.2,Calm,Calm,-,N/A,,Overcast,0,2012-11-28 05:55:00
1:15 AM,50.0,50.0,100,30.17,0.2,Calm,Calm,-,N/A,,Overcast,0,2012-11-28 06:15:00
1:35 AM,48.2,48.2,100,30.17,0.2,Calm,Calm,-,N/A,,Overcast,0,2012-11-28 06:35:00
1:55 AM,48.2,48.2,100,30.17,0.2,Calm,Calm,-,N/A,,Overcast,0,2012-11-28 06:55:00
2:15 AM,50.0,50.0,100,30.18,0.2,North,3.5,-,N/A,,Overcast,350,2012-11-28 07:15:00
2:35 AM,50.0,50.0,100,30.18,0.5,Calm,Calm,-,N/A,,Overcast,0,2012-11-28 07:35:00
2:55 AM,50.0,50.0,100,30.18,0.5,NNW,4.6,-,N/A,,Overcast,340,2012-11-28 07:55:00
3:15 AM,50.0,50.0,100,30.18,0.5,North,4.6,-,N/A,,Overcast,350,2012-11-28 08:15:00
3:35 AM,50.0,50.0,100,30.18,0.5,NNW,6.9,-,N/A,,Overcast,340,2012-11-28 08:35:00
3:55 AM,50.0,50.0,100,30.19,0.2,North,5.8,-,N/A,,Overcast,350,2012-11-28 08:55:00
4:15 AM,50.0,50.0,100,30.20,0.5,North,9.2,-,N/A,,Overcast,360,2012-11-28 09:15:00
4:35 AM,50.0,50.0,100,30.20,0.5,North,6.9,-,N/A,,Overcast,360,2012-11-28 09:35:00
4:55 AM,51.8,51.8,100,30.21,0.8,North,6.9,-,N/A,,Overcast,360,2012-11-28 09:55:00
5:15 AM,51.8,51.8,100,30.21,1.0,North,5.8,-,N/A,,Overcast,10,2012-11-28 10:15:00
5:35 AM,51.8,51.8,100,30.21,1.2,North,9.2,-,N/A,,Overcast,350,2012-11-28 10:35:00
5:55 AM,51.8,51.8,100,30.21,1.8,NNW,10.4,-,N/A,,Overcast,340,2012-11-28 10:55:00
6:15 AM,51.8,51.8,100,30.23,3.0,North,9.2,-,N/A,,Overcast,10,2012-11-28 11:15:00
6:35 AM,51.8,51.8,100,30.24,3.0,North,6.9,-,N/A,,Overcast,350,2012-11-28 11:35:00
6:55 AM,51.8,51.8,100,30.25,4.0,North,5.8,-,N/A,,Overcast,350,2012-11-28 11:55:00
7:15 AM,51.8,51.8,100,30.26,3.0,North,5.8,-,N/A,,Overcast,10,2012-11-28 12:15:00
7:35 AM,51.8,51.8,100,30.27,3.0,North,5.8,-,N/A,,Overcast,360,2012-11-28 12:35:00
7:55 AM,51.8,51.8,100,30.27,4.0,North,5.8,-,N/A,,Overcast,360,2012-11-28 12:55:00
8:15 AM,51.8,51.8,100,30.28,3.0,North,4.6,-,N/A,,Overcast,360,2012-11-28 13:15:00
8:35 AM,53.6,53.6,100,30.28,3.0,North,5.8,-,N/A,,Overcast,350,2012-11-28 13:35:00
9:15 AM,53.6,53.6,100,30.29,5.0,North,3.5,-,N/A,,Overcast,360,2012-11-28 14:15:00
9:35 AM,53.6,53.6,100,30.30,7.0,North,4.6,-,N/A,,Overcast,360,2012-11-28 14:35:00
9:55 AM,55.4,55.4,100,30.30,7.0,North,4.6,-,N/A,,Overcast,10,2012-11-28 14:55:00
10:15 AM,55.4,53.6,94,30.31,7.0,NNE,6.9,-,N/A,,Overcast,20,2012-11-28 15:15:00
10:55 AM,55.4,53.6,94,30.32,7.0,North,8.1,-,N/A,,Overcast,350,2012-11-28 15:55:00
11:15 AM,53.6,53.6,100,30.32,2.0,NNW,8.1,-,N/A,,Overcast,340,2012-11-28 16:15:00
11:35 AM,53.6,53.6,100,30.32,4.0,North,8.1,-,N/A,,Overcast,350,2012-11-28 16:35:00
11:55 AM,53.6,51.8,94,30.32,4.0,NNW,8.1,-,N/A,,Overcast,330,2012-11-28 16:55:00
12:15 PM,55.4,51.8,88,30.31,5.0,North,6.9,-,N/A,,Overcast,350,2012-11-28 17:15:00
12:35 PM,55.4,51.8,88,30.30,5.0,North,5.8,-,N/A,,Overcast,360,2012-11-28 17:35:00
12:55 PM,55.4,51.8,88,30.30,5.0,NNW,8.1,-,N/A,,Overcast,330,2012-11-28 17:55:00
1:15 PM,55.4,51.8,88,30.30,5.0,North,8.1,-,N/A,,Overcast,350,2012-11-28 18:15:00
1:35 PM,55.4,51.8,88,30.29,5.0,North,5.8,-,N/A,,Overcast,350,2012-11-28 18:35:00
1:55 PM,57.2,53.6,88,30.28,5.0,North,6.9,-,N/A,,Overcast,350,2012-11-28 18:55:00
2:15 PM,57.2,51.8,82,30.27,7.0,North,5.8,-,N/A,,Overcast,10,2012-11-28 19:15:00
2:35 PM,57.2,51.8,82,30.27,7.0,North,6.9,-,N/A,,Overcast,360,2012-11-28 19:35:00
2:55 PM,57.2,51.8,82,30.27,7.0,NNE,6.9,-,N/A,,Overcast,20,2012-11-28 19:55:00
3:15 PM,57.2,51.8,82,30.28,7.0,North,6.9,-,N/A,,Overcast,360,2012-11-28 20:15:00
3:35 PM,57.2,50.0,77,30.28,10.0,North,5.8,-,N/A,,Overcast,350,2012-11-28 20:35:00
3:55 PM,57.2,50.0,77,30.28,10.0,Calm,Calm,-,N/A,,Overcast,0,2012-11-28 20:55:00
4:15 PM,57.2,51.8,82,30.28,10.0,North,3.5,-,N/A,,Overcast,10,2012-11-28 21:15:00
4:35 PM,57.2,50.0,77,30.28,10.0,North,4.6,-,N/A,,Overcast,350,2012-11-28 21:35:00
4:55 PM,55.4,51.8,88,30.29,10.0,NNW,4.6,-,N/A,,Overcast,330,2012-11-28 21:55:00
5:15 PM,55.4,51.8,88,30.29,10.0,NNW,3.5,-,N/A,,Overcast,340,2012-11-28 22:15:00
5:35 PM,55.4,51.8,88,30.30,10.0,North,3.5,-,N/A,,Overcast,360,2012-11-28 22:35:00
5:55 PM,55.4,51.8,88,30.30,7.0,Calm,Calm,-,N/A,,Overcast,0,2012-11-28 22:55:00
6:15 PM,55.4,50.0,82,30.31,10.0,NNE,5.8,-,N/A,,Overcast,20,2012-11-28 23:15:00
6:35 PM,55.4,50.0,82,30.32,10.0,NNE,4.6,-,N/A,,Overcast,30,2012-11-28 23:35:00
6:55 PM,55.4,48.2,77,30.33,10.0,NE,4.6,-,N/A,,Overcast,40,2012-11-28 23:55:00
7:15 PM,55.4,48.2,77,30.33,10.0,NNE,4.6,-,N/A,,Overcast,30,2012-11-29 00:15:00
7:35 PM,55.4,48.2,77,30.34,10.0,NE,4.6,-,N/A,,Overcast,50,2012-11-29 00:35:00
7:55 PM,53.6,48.2,82,30.34,10.0,ENE,3.5,-,N/A,,Overcast,60,2012-11-29 00:55:00
8:15 PM,53.6,48.2,82,30.35,10.0,East,4.6,-,N/A,,Overcast,80,2012-11-29 01:15:00
8:35 PM,53.6,48.2,82,30.35,10.0,East,5.8,-,N/A,,Overcast,80,2012-11-29 01:35:00
8:55 PM,53.6,48.2,82,30.36,10.0,East,6.9,-,N/A,,Overcast,80,2012-11-29 01:55:00
9:15 PM,53.6,48.2,82,30.36,10.0,East,4.6,-,N/A,,Overcast,90,2012-11-29 02:15:00
9:35 PM,53.6,48.2,82,30.36,10.0,East,3.5,-,N/A,,Overcast,80,2012-11-29 02:35:00
9:55 PM,51.8,48.2,88,30.36,10.0,ENE,3.5,-,N/A,,Overcast,70,2012-11-29 02:55:00
10:15 PM,51.8,48.2,88,30.36,10.0,East,3.5,-,N/A,,Overcast,80,2012-11-29 03:15:00
10:35 PM,51.8,48.2,88,30.36,10.0,Calm,Calm,-,N/A,,Overcast,0,2012-11-29 03:35:00
10:55 PM,50.0,46.4,87,30.36,10.0,Calm,Calm,-,N/A,,Scattered Clouds,0,2012-11-29 03:55:00
11:15 PM,48.2,46.4,93,30.36,7.0,Calm,Calm,-,N/A,,Clear,0,2012-11-29 04:15:00
11:35 PM,46.4,46.4,100,30.36,5.0,Calm,Calm,-,N/A,,Clear,0,2012-11-29 04:35:00
11:55 PM,44.6,44.6,100,30.36,4.0,Calm,Calm,-,N/A,,Clear,0,2012-11-29 04:55:00